Terminal Aerodrome Forecast
Issued by NWS Corpus Christi, TX

Home | Current Version | Previous Version | Text Only | Print | Product List | Glossary On
Versions: 1 2 3 4 5 6 7 8 9 10 11 12 13 14 15 16 17 18 19 20 21
000
FTUS44 KCRP 012320
TAFCRP
TAF
KCRP 012320Z 0200/0224 12015G20KT P6SM SCT025 BKN120
     FM020300 13012KT P6SM SCT025
     FM021000 VRB03KT P6SM SCT020
      TEMPO 0210/0213 5SM BR BKN020
     FM021300 13004KT P6SM VCSH BKN025
     FM021500 14012KT P6SM VCTS SCT030CB
     FM022100 15015KT P6SM FEW035=

USA.gov is the U.S. government's official web portal to all federal, state and local government web resources and services.